Location: Lango�lan
(48.1202°N, 3.2340°W)
Time: 10:24:55
(UTC+00:00)

Cosmos 2237 Rocket - Pass Details

Date: 23 October 2019
Orbit: 833 x 851 km, 71.0° (Epoch: 14 November)

Event Time Altitude Azimuth Distance (km) Brightness Sun altitude
Exits shadow 05:43:41 14° 279° (W) 2,220 3.7 -10.7°
Maximum altitude 05:46:52 21° 319° (NW) 1,832 3.6 -10.1°
Drops below altitude 10° 05:51:07 10° 7° (N) 2,490 4.7 -9.4°
Sets 05:54:13 0° 23° (NNE) 3,430 5.6 -8.9°
